Weather History for K9A4 - March, 2013

Change the Weather History Date:

Sunday, March 10, 2013

  Actual Average (KMSL) Record (KMSL)
Temperature  
Mean Temperature 58 °F 52 °F  
Max Temperature 71 °F 63 °F 82 °F (1925)
Min Temperature 46 °F 41 °F 16 °F (1932)
Degree Days  
Heating Degree Days 6 14  
Month to date heating degree days 149  
Since 1 July heating degree days 2684  
Cooling Degree Days 0 0  
Month to date cooling degree days 0  
Year to date cooling degree days 1  
Growing Degree Days 8 (Base 50)    
Moisture  
Dew Point 41 °F    
Average Humidity 47    
Maximum Humidity 82    
Minimum Humidity 29    
Precipitation  
Precipitation 0.00 in 0.15 in 2.96 in (1922)
Month to date precipitation 1.54  
Year to date precipitation 10.81  
Snow  
Snow 0.00 in - - ()
Month to date snowfall  
Since 1 July snowfall  
Snow Depth -    
Sea Level Pressure  
Sea Level Pressure 29.95 in    
Wind  
Wind Speed 12 mph (SSE)    
Max Wind Speed 24 mph    
Max Gust Speed 37 mph    
Visibility 10 miles    
Events Rain    
T = Trace of Precipitation, MM = Missing Value Source: NWS Daily Summary

Daily Weather History Graph

Daily Weather History Graph

Search for Another Location

Airport or City:

Trip Planner

Search our weather history database for the weather conditions in past years. The results will help you decide how hot, cold, wet, or windy it might be!

Date:

Astronomy

Mar. 10, 2013 Rise Set
Actual Time 7:06 AM CDT 6:53 PM CDT
Civil Twilight 6:41 AM CDT 7:18 PM CDT
Nautical Twilight 6:12 AM CDT 7:47 PM CDT
Astronomical Twilight 5:42 AM CDT 8:16 PM CDT
Moon 6:04 AM CDT (3/10) 6:00 PM CDT (3/10)
Length of Visible Light 12h 37m
Length of Day
11h 46m
Waning Crescent, 2% of the Moon is Illuminated
Mar 10
Waning Crescent
Mar 11
New
Mar 19
First Quarter
Mar 27
Full
Apr 2
Last Quarter

Hourly Weather History & Observations

Time (CDT) Temp. Windchill Dew Point Humidity Pressure Visibility Wind Dir Wind Speed Gust Speed Precip Events Conditions
12:15 AM 51.8 °F - 35.6 °F 54% 30.08 in 10.0 mi ESE 8.1 mph - N/A   Clear
12:35 AM 51.8 °F - 35.6 °F 54% 30.08 in 10.0 mi ESE 8.1 mph - N/A   Clear
12:55 AM 53.6 °F - 35.6 °F 51% 30.08 in 10.0 mi ESE 8.1 mph - N/A   Clear
1:15 AM 51.8 °F - 35.6 °F 54% 30.08 in 10.0 mi SE 6.9 mph - N/A   Clear
1:35 AM 53.6 °F - 35.6 °F 51% 30.06 in 10.0 mi SE 8.1 mph - N/A   Clear
3:15 AM 55.4 °F - 32.0 °F 41% 30.05 in 10.0 mi SSE 10.4 mph - N/A   Clear
3:35 AM 55.4 °F - 32.0 °F 41% 30.05 in 10.0 mi SSE 8.1 mph - N/A   Clear
3:55 AM 55.4 °F - 32.0 °F 41% 30.06 in 10.0 mi South 3.5 mph - N/A   Clear
4:15 AM 55.4 °F - 32.0 °F 41% 30.07 in 10.0 mi South 4.6 mph - N/A   Clear
4:35 AM 55.4 °F - 32.0 °F 41% 30.08 in 10.0 mi South 3.5 mph - N/A   Clear
4:55 AM 53.6 °F - 32.0 °F 44% 30.08 in 10.0 mi SE 3.5 mph - N/A   Clear
5:15 AM 51.8 °F - 32.0 °F 47% 30.08 in 10.0 mi East 4.6 mph - N/A   Clear
5:35 AM 46.4 °F 42.9 °F 35.6 °F 66% 30.07 in 10.0 mi ESE 6.9 mph - N/A   Clear
5:55 AM 48.2 °F - 33.8 °F 58% 30.07 in 10.0 mi ESE 8.1 mph - N/A   Clear
6:15 AM 50.0 °F - 33.8 °F 54% 30.07 in 10.0 mi ESE 8.1 mph - N/A   Clear
6:35 AM 50.0 °F - 33.8 °F 54% 30.05 in 10.0 mi ESE 9.2 mph - N/A   Clear
6:55 AM 50.0 °F - 33.8 °F 54% - - North - - N/A   Clear
7:15 AM 50.0 °F - 33.8 °F 54% - - North - - N/A   Unknown
7:35 AM - - - N/A% - - North - - N/A   Unknown
12:15 PM - - - N/A% 30.03 in - South 13.8 mph - N/A   Unknown
12:35 PM 66.2 °F - 37.4 °F 35% 30.03 in 10.0 mi South 9.2 mph - N/A   Clear
1:15 PM 68.0 °F - 37.4 °F 33% 30.00 in 10.0 mi South 17.3 mph 24.2 mph N/A   Clear
1:35 PM 69.8 °F - 37.4 °F 31% 29.98 in 10.0 mi South 20.7 mph 29.9 mph N/A   Clear
1:55 PM 69.8 °F - 39.2 °F 33% 29.98 in 10.0 mi South 15.0 mph 28.8 mph N/A   Clear
2:15 PM 68.0 °F - 39.2 °F 35% 29.98 in 10.0 mi South 18.4 mph 26.5 mph N/A   Clear
2:35 PM 68.0 °F - 39.2 °F 35% 29.95 in 10.0 mi South 16.1 mph 23.0 mph N/A   Clear
2:55 PM 69.8 °F - 39.2 °F 33% 29.96 in 10.0 mi South 12.7 mph 23.0 mph N/A   Clear
3:15 PM 69.8 °F - 41.0 °F 35% 29.95 in 10.0 mi South 17.3 mph 26.5 mph N/A   Clear
3:35 PM 71.6 °F - 37.4 °F 29% 29.96 in 10.0 mi South 19.6 mph 28.8 mph N/A   Clear
3:55 PM 71.6 °F - 39.2 °F 31% 29.92 in 10.0 mi South 23.0 mph 27.6 mph N/A   Clear
4:15 PM 71.6 °F - 41.0 °F 33% 29.91 in 10.0 mi South 20.7 mph 26.5 mph N/A   Clear
4:35 PM 71.6 °F - 41.0 °F 33% 29.89 in 10.0 mi South 19.6 mph 26.5 mph N/A   Clear
4:55 PM 71.6 °F - 39.2 °F 31% 29.88 in 10.0 mi South 18.4 mph 32.2 mph N/A   Clear
5:15 PM 71.6 °F - 39.2 °F 31% 29.87 in 10.0 mi South 23.0 mph 26.5 mph N/A   Clear
5:35 PM 71.6 °F - 41.0 °F 33% 29.87 in 10.0 mi South 17.3 mph 26.5 mph N/A   Clear
5:55 PM 69.8 °F - 41.0 °F 35% 29.87 in 10.0 mi South 21.9 mph 28.8 mph N/A   Clear
6:15 PM 69.8 °F - 42.8 °F 38% 29.86 in 10.0 mi South 23.0 mph 27.6 mph N/A   Clear
6:35 PM 69.8 °F - 41.0 °F 35% 29.85 in 10.0 mi South 21.9 mph 29.9 mph N/A   Clear
6:55 PM 69.8 °F - 42.8 °F 38% 29.86 in 10.0 mi South 17.3 mph 27.6 mph N/A   Clear
7:15 PM 68.0 °F - 42.8 °F 40% 29.85 in 10.0 mi South 19.6 mph 25.3 mph N/A   Mostly Cloudy
7:35 PM 69.8 °F - 42.8 °F 38% 29.85 in 10.0 mi South 18.4 mph 28.8 mph N/A   Overcast
7:55 PM 68.0 °F - 44.6 °F 43% 29.86 in 10.0 mi South 15.0 mph 24.2 mph N/A   Overcast
8:15 PM 68.0 °F - 44.6 °F 43% 29.85 in 10.0 mi South 18.4 mph 28.8 mph N/A   Overcast
8:35 PM 68.0 °F - 44.6 °F 43% 29.86 in 10.0 mi South 18.4 mph 32.2 mph N/A   Overcast
8:55 PM 69.8 °F - 44.6 °F 40% 29.86 in 10.0 mi South 24.2 mph 31.1 mph N/A   Overcast
9:15 PM 68.0 °F - 44.6 °F 43% 29.87 in 10.0 mi South 18.4 mph 34.5 mph N/A   Overcast
9:35 PM 68.0 °F - 44.6 °F 43% 29.87 in 10.0 mi South 19.6 mph 32.2 mph N/A   Overcast
9:55 PM 66.2 °F - 46.4 °F 49% 29.88 in 10.0 mi South 15.0 mph 36.8 mph N/A   Mostly Cloudy
10:15 PM 62.6 °F - 50.0 °F 63% 29.89 in 10.0 mi South 13.8 mph 19.6 mph N/A   Light Drizzle
10:35 PM 60.8 °F - 51.8 °F 72% 29.88 in 10.0 mi South 18.4 mph 23.0 mph N/A Rain Light Rain
10:55 PM 59.0 °F - 53.6 °F 82% 29.87 in 10.0 mi South 11.5 mph - N/A Rain Light Rain
11:15 PM 60.8 °F - 53.6 °F 77% 29.88 in 10.0 mi South 12.7 mph 20.7 mph N/A Rain Light Rain
11:35 PM 60.8 °F - 53.6 °F 77% 29.87 in 10.0 mi South 12.7 mph 19.6 mph N/A Rain Rain
11:55 PM 60.8 °F - 53.6 °F 77% 29.88 in 10.0 mi South 16.1 mph 20.7 mph N/A Rain Rain
12:15 AM 60.8 °F - 53.6 °F 77% 29.86 in 10.0 mi South 15.0 mph 19.6 mph N/A Rain Light Rain
12:35 AM 60.8 °F - 53.6 °F 77% 29.85 in 10.0 mi South 11.5 mph 25.3 mph N/A Rain Rain
12:55 AM 60.8 °F - 53.6 °F 77% 29.87 in 7.0 mi South 12.7 mph 20.7 mph N/A Rain Rain